Location: Lourdes
(43.1000°N, 0.0500°W)
Time: 01:22:37
(UTC+00:00)

Cosmos 773 Rocket - Pass Details

Date: 20 April 2021
Orbit: 745 x 777 km, 74.1° (Epoch: 10 May)

Event Time Altitude Azimuth Distance (km) Brightness Sun altitude
Rises 02:02:51 0° 328° (NNW) 3,260 7.5 -28.5°
Reaches altitude 10° 02:05:35 10° 315° (NW) 2,331 6.6 -28.2°
Enters shadow 02:06:41 15° 307° (NW) 2,012 6.1 -28.1°
